[[{"header":{"parameterUnit":"m.s-1","parameterCategory":2,"la1":30.2991,"la2":30.254,"lo1":-89.0895,"lo2":-89.0444,"dy":0.0017,"dx":0.0017,"nx":28,"ny":28,"refTime":"2024-06-07T09:00:00:Z","depth":"0","parameterNumber":2,"parameterNumberName":"U-component_of_CURRENTS"},"data":[0,0,0,0,0,0,0,0,0,0,0,0,0,0,0,0,0,0,0,0,0,0,0,0,0,0,0,0,0,0,0,0,0,0,0,0,0,0,0,0,0,0,0,0,0,0,0,0,0,0,0,0,0,0,0,0,0,0,-0.3303,-0.3304,0,-0.3454,-0.3456,-0.3458,-0.3612,-0.3614,-0.3616,-0.3617,-0.4009,-0.4017,-0.4026,0,0,0,0,0,0,0,0,0,0,0,0,0,-0.3187,-0.3189,-0.3303,-0.3304,-0.3306,-0.3453,-0.3456,-0.3459,-0.3612,-0.3614,-0.3616,-0.3618,-0.4006,-0.4016,-0.4027,0,0,0,0,0,0,0,0,0,0,0,0,0,-0.3283,-0.3189,-0.3303,-0.3396,-0.3406,-0.3453,-0.3456,-0.3459,-0.3612,-0.3614,-0.3616,-0.3619,-0.4002,-0.4015,-0.4028,-0.4063,0,0,-0.4069,-0.4075,0,0,0,0,0,0,0,0,-0.3277,-0.3287,-0.3381,-0.339,-0.34,-0.3512,-0.3559,-0.3671,-0.3611,-0.3539,-0.3617,-0.362,-0.386,-0.3885,-0.3912,-0.4081,-0.4098,-0.407,-0.4079,-0.4084,-0.4088,0,0,0,0,0,0,0,-0.327,-0.3282,-0.3368,-0.3382,-0.3394,-0.3444,-0.346,-0.358,-0.3693,-0.3546,-0.3556,-0.3563,-0.3868,-0.3898,-0.3923,-0.4104,-0.407,-0.4082,-0.409,-0.4096,-0.432,-0.4318,0,0,0,0,0,0,-0.3236,-0.3275,-0.3363,-0.3372,-0.3337,-0.3443,-0.3462,-0.3478,-0.3686,-0.3717,-0.3561,-0.357,-0.3874,-0.3907,-0.3938,-0.3964,-0.4084,-0.4097,-0.4105,-0.4322,-0.432,-0.4317,0,0,0,0,0,0,-0.3233,-0.3243,-0.3357,-0.3322,-0.334,-0.3442,-0.3459,-0.348,-0.3506,-0.3694,-0.3731,-0.3564,-0.3878,-0.3919,-0.4044,-0.3982,-0.4103,-0.4115,-0.4325,-0.4321,-0.4318,-0.4036,0,0,0,0,0,0,-0.3229,-0.3241,-0.3241,-0.332,-0.334,-0.3366,-0.3457,-0.3481,-0.3504,-0.3517,-0.371,-0.3749,-0.3883,-0.4023,-0.4057,-0.4003,-0.4125,-0.4327,-0.4323,-0.4319,-0.4048,-0.4024,-0.4003,0,0,0,0,0,-0.3225,-0.3221,-0.3241,-0.3251,-0.3338,-0.3363,-0.3378,-0.3463,-0.3501,-0.3498,-0.3639,-0.3743,-0.4022,-0.4033,-0.4074,-0.4021,-0.4329,-0.4324,-0.432,-0.4058,-0.4029,-0.4004,0,0,0,0,0,0,-0.3182,-0.3237,-0.3261,-0.3277,-0.3302,-0.3387,-0.3397,-0.3436,-0.3537,-0.3566,-0.374,-0.3788,-0.386,-0.3986,-0.3993,-0.4074,-0.4183,-0.4186,-0.397,-0.3944,-0.3921,-0.3931,-0.4137,0,0,0,0,0,-0.3163,-0.3169,-0.3221,-0.3227,-0.3236,-0.3303,-0.3324,-0.3371,-0.3464,-0.3509,-0.3625,-0.3763,-0.3869,-0.3944,-0.4057,-0.4121,-0.4174,-0.4108,-0.4085,-0.4065,-0.4099,-0.4098,-0.4077,-0.4302,-0.4302,-0.4302,0,0,-0.3147,-0.3175,-0.3181,-0.3215,-0.325,-0.3268,-0.3324,-0.3341,-0.3361,-0.354,-0.3602,-0.3688,-0.3866,-0.3925,-0.3968,-0.403,-0.401,-0.4059,-0.404,-0.4088,-0.4091,-0.4069,-0.4049,-0.4299,-0.43,-0.43,0,0,-0.3118,-0.3138,-0.3137,-0.3154,-0.3184,-0.3223,-0.3212,-0.3266,-0.3295,-0.3352,-0.3469,-0.3514,-0.3694,-0.3777,-0.3856,-0.3781,-0.3879,-0.3806,-0.3719,-0.3712,-0.3693,-0.3678,-0.3623,-0.3605,-0.3806,-0.3805,-0.3805,0,-0.3098,-0.3113,-0.3135,-0.3143,-0.3162,-0.3193,-0.3202,-0.3226,-0.3307,-0.3331,-0.3349,-0.3517,-0.3622,-0.3707,-0.3669,-0.3726,-0.3739,-0.3797,-0.3678,-0.3665,-0.3654,-0.3603,-0.3587,-0.3791,-0.3793,-0.3794,-0.3796,0,-0.3079,-0.3092,-0.3086,-0.3114,-0.3127,-0.3129,-0.3164,-0.3168,-0.3186,-0.3216,-0.3251,-0.3346,-0.3463,-0.3447,-0.3551,-0.3521,-0.3552,-0.3627,-0.3733,-0.3613,-0.3567,-0.3555,-0.3771,-0.3776,-0.378,-0.3784,0,0,-0.3035,-0.307,-0.3069,-0.3086,-0.3114,-0.3126,-0.3137,-0.3162,-0.3183,-0.3176,-0.3199,-0.3255,-0.3271,-0.3361,-0.3426,-0.3401,-0.3261,-0.3474,-0.348,-0.3395,-0.3209,-0.3106,-0.3085,-0.3313,-0.3312,-0.3311,-0.3172,0,-0.3015,-0.3028,-0.3054,-0.3067,-0.3076,-0.3113,-0.3131,-0.3153,-0.3167,-0.3185,-0.3196,-0.3247,-0.3251,-0.3285,-0.3246,-0.3319,-0.3236,-0.3291,-0.3367,-0.3368,-0.3272,-0.3071,-0.2993,-0.2856,-0.3162,-0.316,-0.3159,0,-0.2981,-0.3004,-0.3015,-0.3063,-0.3072,-0.3084,-0.3126,-0.3145,-0.3173,-0.3187,-0.3192,-0.3228,-0.3218,-0.3218,-0.3186,-0.3228,-0.3186,-0.3181,-0.3178,-0.3198,-0.3246,-0.305,-0.2825,-0.2808,-0.3143,-0.3144,-0.3145,0,-0.2929,-0.2971,-0.2981,-0.2996,-0.3053,-0.3069,-0.3096,-0.3134,-0.3155,-0.3185,-0.3203,-0.3201,-0.3218,-0.3172,-0.3136,-0.3175,-0.3068,-0.3137,-0.2971,-0.2963,-0.2977,-0.2972,-0.274,-0.304,-0.3041,-0.3041,-0.3042,0,-0.2888,-0.2892,-0.2959,-0.2965,-0.2982,-0.3039,-0.3057,-0.3091,-0.3141,-0.3152,-0.3194,-0.3196,-0.3209,-0.3161,-0.3111,-0.2981,-0.3036,-0.2913,-0.2912,-0.2865,-0.2852,-0.2914,-0.2975,-0.3036,-0.3037,-0.3038,-0.3039,0,-0.2798,-0.2849,-0.2858,-0.2928,-0.2948,-0.2952,-0.3018,-0.3034,-0.3106,-0.3125,-0.3136,-0.3189,-0.3128,-0.3077,-0.3012,-0.2946,-0.2793,-0.2771,-0.2679,-0.2668,-0.2518,-0.2569,-0.2424,-0.2351,-0.258,-0.2576,-0.2573,0,-0.2742,-0.2741,-0.2802,-0.2808,-0.283,-0.2863,-0.2883,-0.2979,-0.3004,-0.3098,-0.3096,-0.3081,-0.3023,-0.2871,-0.275,-0.2585,-0.2616,-0.2432,-0.2483,-0.244,-0.2499,-0.2547,-0.2501,-0.2357,-0.2353,-0.2349,-0.2346,0,-0.2624,-0.2646,-0.2661,-0.2683,-0.2703,-0.2731,-0.2776,-0.2801,-0.2912,-0.2948,-0.2961,-0.2932,-0.2808,-0.2633,-0.2445,-0.2348,-0.2399,-0.2349,-0.235,-0.2316,-0.2317,-0.227,-0.2497,-0.2314,-0.2317,-0.2319,-0.2321,-0.2322,-0.2511,-0.2495,-0.2522,-0.2525,-0.2556,-0.2569,-0.2539,-0.2621,-0.2646,-0.2664,-0.2745,-0.2671,-0.2581,-0.2313,-0.2192,-0.2017,-0.2106,-0.2001,-0.2062,-0.2108,-0.2043,-0.215,-0.1952,-0.1953,-0.1954,-0.1955,-0.1956,0,-0.2357,-0.2361,-0.2363,-0.2364,-0.2332,-0.2405,-0.2436,-0.239,-0.2363,-0.2427,-0.2403,-0.2342,-0.2166,-0.2076,-0.1905,-0.1795,-0.1762,-0.1763,-0.1844,-0.1806,-0.1924,-0.1919,-0.165,-0.165,-0.165,-0.165,-0.165,-0.165,-0.2276,-0.2224,-0.2232,-0.213,-0.213,-0.2038,-0.2017,-0.1987,-0.1999,-0.195,-0.1953,-0.1998,-0.1961,-0.2044,-0.1862,-0.1749,-0.1719,-0.1662,-0.1672,-0.1816,-0.1845,-0.1873,-0.1876,-0.1602,-0.1602,-0.1499,-0.1498,-0.1498]},{"header":{"parameterUnit":"m.s-1","parameterCategory":2,"la1":30.2991,"la2":30.254,"lo1":-89.0895,"lo2":-89.0444,"dy":0.0017,"dx":0.0017,"nx":28,"ny":28,"refTime":"2024-06-07T09:00:00:Z","depth":"0","parameterNumber":3,"parameterNumberName":"V-component_of_CURRENTS"},"data":[0,0,0,0,0,0,0,0,0,0,0,0,0,0,0,0,0,0,0,0,0,0,0,0,0,0,0,0,0,0,0,0,0,0,0,0,0,0,0,0,0,0,0,0,0,0,0,0,0,0,0,0,0,0,0,0,0,0,-0.0666,-0.0664,0,-0.0493,-0.0491,-0.0488,-0.0327,-0.0325,-0.0324,-0.0322,0.0066,0.0075,0.0084,0,0,0,0,0,0,0,0,0,0,0,0,0,-0.0688,-0.0689,-0.0666,-0.0664,-0.0662,-0.0493,-0.049,-0.0488,-0.0327,-0.0325,-0.0323,-0.0321,0.0063,0.0074,0.0084,0,0,0,0,0,0,0,0,0,0,0,0,0,-0.061,-0.0689,-0.0666,-0.0565,-0.0555,-0.0494,-0.049,-0.0487,-0.0328,-0.0325,-0.0323,-0.0321,0.006,0.0073,0.0086,0.012,0,0,0.0127,0.0132,0,0,0,0,0,0,0,0,-0.0614,-0.0608,-0.0582,-0.0572,-0.056,-0.0433,-0.0356,-0.0275,-0.0328,-0.0409,-0.0322,-0.0319,-0.0085,-0.006,-0.003,0.0138,0.0155,0.0128,0.0136,0.0141,0.0145,0,0,0,0,0,0,0,-0.062,-0.0614,-0.0593,-0.058,-0.0567,-0.0471,-0.0458,-0.034,-0.0255,-0.0402,-0.0391,-0.0379,-0.0077,-0.0043,-0.0019,0.016,0.0127,0.0139,0.0147,0.0152,0.0393,0.0391,0,0,0,0,0,0,-0.0662,-0.0621,-0.0598,-0.0588,-0.0587,-0.0473,-0.0459,-0.0473,-0.0261,-0.0229,-0.0382,-0.0373,-0.0067,-0.0034,-0.0004,0.005,0.0141,0.0154,0.0161,0.0394,0.0392,0.039,0,0,0,0,0,0,-0.0664,-0.0663,-0.0605,-0.0601,-0.0588,-0.0477,-0.0493,-0.0471,-0.0433,-0.0249,-0.0211,-0.0367,-0.0064,-0.0023,0.0075,0.0067,0.016,0.0172,0.0396,0.0394,0.0391,0.0159,0,0,0,0,0,0,-0.0666,-0.0666,-0.0678,-0.0606,-0.059,-0.0579,-0.0495,-0.0469,-0.0432,-0.0418,-0.0224,-0.0186,-0.0059,0.0053,0.0088,0.0087,0.0182,0.0398,0.0395,0.0392,0.0168,0.0149,0.0132,0,0,0,0,0,-0.0668,-0.0693,-0.0681,-0.0677,-0.0617,-0.0581,-0.0564,-0.0471,-0.0434,-0.0427,-0.0316,-0.0192,0.006,0.0062,0.0103,0.0106,0.0399,0.0396,0.0392,0.0177,0.0153,0.0132,0,0,0,0,0,0,-0.0696,-0.0678,-0.0662,-0.0679,-0.0643,-0.0555,-0.0534,-0.0492,-0.0402,-0.038,-0.0215,-0.017,-0.0091,0.0031,0.0028,0.0164,0.0252,0.0256,0.0074,0.0053,0.0035,0.0029,0.0193,0,0,0,0,0,-0.0721,-0.074,-0.0703,-0.0714,-0.0704,-0.0631,-0.0602,-0.0554,-0.0472,-0.043,-0.031,-0.0178,-0.0076,0.0003,0.0112,0.0191,0.0317,0.022,0.0201,0.0185,0.0205,0.0362,0.036,0.0379,0.0379,0.0379,0,0,-0.0733,-0.0727,-0.0733,-0.0722,-0.0682,-0.068,-0.0605,-0.0579,-0.0567,-0.0399,-0.034,-0.0243,-0.0077,-0.0003,0.0048,0.0105,0.0234,0.018,0.0165,0.0196,0.0359,0.0357,0.0356,0.0376,0.0377,0.0377,0,0,-0.0769,-0.0769,-0.0796,-0.0784,-0.0754,-0.0713,-0.0721,-0.0659,-0.0617,-0.057,-0.0456,-0.0373,-0.0209,-0.01,-0.002,-0.0069,0.0115,-0.0036,-0.0104,0.0045,0.0046,0.0048,0.0153,0.0167,-0.0024,-0.0025,-0.0025,0,-0.0781,-0.082,-0.0793,-0.0816,-0.0808,-0.0745,-0.0765,-0.0723,-0.0638,-0.06,-0.0573,-0.0369,-0.0249,-0.0137,-0.0166,-0.0106,-0.0003,-0.0041,0.0022,0.0027,0.0034,0.0142,0.016,-0.0036,-0.0035,-0.0034,-0.0033,0,-0.0841,-0.0866,-0.088,-0.0897,-0.0886,-0.0893,-0.0851,-0.0829,-0.0785,-0.0725,-0.0638,-0.0508,-0.0363,-0.0342,-0.0265,-0.0171,-0.0112,-0.0041,0.0073,0.0018,0.0135,0.0158,-0.0053,-0.0049,-0.0045,-0.0042,0,0,-0.088,-0.0917,-0.0921,-0.0941,-0.0933,-0.0928,-0.0924,-0.0882,-0.085,-0.0786,-0.0722,-0.0611,-0.0531,-0.0438,-0.0338,-0.0231,-0.0141,-0.0133,-0.0119,-0.0037,0.0166,0.0178,0.0206,-0.0055,-0.0051,-0.0048,0.021,0,-0.093,-0.1,-0.0997,-0.104,-0.1069,-0.1024,-0.1022,-0.0974,-0.0905,-0.0827,-0.0706,-0.0608,-0.0566,-0.0502,-0.0396,-0.0183,-0.0081,-0.0218,0.0219,0.0231,0.0243,0.0233,0.0263,0.0495,0.0234,0.0238,0.0241,0,-0.0989,-0.1029,-0.1095,-0.1117,-0.1123,-0.1136,-0.1097,-0.1078,-0.096,-0.09,-0.0787,-0.0673,-0.0519,-0.0477,-0.0155,-0.0242,-0.0061,0.0083,0.0099,0.0222,0.0289,0.0523,0.0549,0.0723,0.0279,0.0276,0.0273,0,-0.1036,-0.1089,-0.1145,-0.1158,-0.1177,-0.1184,-0.1174,-0.1096,-0.1058,-0.0921,-0.0858,-0.0669,-0.0535,-0.0309,-0.0043,-0.0072,0.0319,0.0341,0.0513,0.0515,0.0688,0.0699,0.094,0.0574,0.0574,0.0573,0.0572,0,-0.1098,-0.1137,-0.1173,-0.1209,-0.1251,-0.1236,-0.1231,-0.119,-0.1095,-0.1023,-0.0887,-0.0769,-0.048,-0.0236,-0.002,0.0318,0.0359,0.0514,0.0597,0.0598,0.0597,0.0878,0.0937,0.0583,0.0581,0.0579,0.0577,0,-0.1142,-0.1171,-0.1232,-0.1271,-0.1282,-0.1305,-0.1288,-0.1265,-0.1177,-0.107,-0.1027,-0.0785,-0.0469,-0.0195,0.0218,0.0375,0.0802,0.0785,0.073,0.08,0.1072,0.1115,0.148,0.1607,0.1015,0.1017,0.1019,0,-0.1172,-0.1214,-0.1279,-0.1314,-0.1336,-0.1359,-0.1371,-0.1313,-0.127,-0.1068,-0.1009,-0.0705,-0.0463,0.0096,0.0433,0.0817,0.0955,0.105,0.0993,0.1104,0.1217,0.1241,0.1323,0.1123,0.1125,0.1127,0.1129,0,-0.122,-0.1242,-0.1292,-0.1372,-0.1408,-0.1432,-0.1433,-0.1412,-0.1304,-0.1188,-0.0954,-0.0743,-0.0228,0.0231,0.0684,0.0904,0.1167,0.1099,0.1283,0.1371,0.1359,0.1515,0.0895,0.1146,0.1145,0.1143,0.1142,0.1142,-0.1236,-0.1284,-0.1352,-0.1418,-0.1461,-0.1488,-0.1485,-0.1434,-0.1343,-0.1132,-0.0922,-0.0563,0.0046,0.0695,0.0946,0.1404,0.136,0.1534,0.1593,0.1617,0.1696,0.1064,0.1356,0.1355,0.1355,0.1354,0.1354,0,-0.1255,-0.1316,-0.139,-0.1466,-0.1509,-0.1523,-0.151,-0.1456,-0.1325,-0.1085,-0.0823,-0.0135,0.0455,0.0987,0.1622,0.1879,0.1951,0.2005,0.2075,0.215,0.1681,0.1636,0.192,0.192,0.192,0.192,0.1919,0.1919,-0.1267,-0.1346,-0.1395,-0.1481,-0.1526,-0.1541,-0.1522,-0.1406,-0.1232,-0.0804,-0.0409,-0.0071,0.0665,0.168,0.2266,0.2326,0.2567,0.2539,0.2679,0.2352,0.2312,0.2274,0.2249,0.2657,0.2657,0.3142,0.3147,0.315]}],[{"header":{"parameterUnit":"m.s-1","parameterCategory":2,"la1":30.2991,"la2":30.254,"lo1":-89.0895,"lo2":-89.0444,"dy":0.0017,"dx":0.0017,"nx":28,"ny":28,"refTime":"2024-06-07T09:00:00:Z","depth":"2","parameterNumber":2,"parameterNumberName":"U-component_of_CURRENTS"},"data":[0,0,0,0,0,0,0,0,0,0,0,0,0,0,0,0,0,0,0,0,0,0,0,0,0,0,0,0,0,0,0,0,0,0,0,0,0,0,0,0,0,0,0,0,0,0,0,0,0,0,0,0,0,0,0,0,0,0,-0.2886,-0.2888,0,-0.3001,-0.3002,-0.3004,-0.3079,-0.308,-0.3081,-0.3081,-0.3187,-0.3189,-0.3192,0,0,0,0,0,0,0,0,0,0,0,0,0,-0.2767,-0.2768,-0.2886,-0.2888,-0.2889,-0.3001,-0.3002,-0.3004,-0.3079,-0.308,-0.3081,-0.3081,-0.3187,-0.3189,-0.3192,0,0,0,0,0,0,0,0,0,0,0,0,0,-0.2842,-0.2768,-0.2886,-0.2941,-0.2948,-0.3001,-0.3002,-0.3004,-0.3079,-0.308,-0.3081,-0.3082,-0.3186,-0.3189,-0.3192,-0.3194,0,0,-0.3203,-0.3204,0,0,0,0,0,0,0,0,-0.2838,-0.2846,-0.2932,-0.2938,-0.2945,-0.3028,-0.2999,-0.3068,-0.3079,-0.3028,-0.3081,-0.3082,-0.3133,-0.3141,-0.3159,-0.3199,-0.3204,-0.3203,-0.3205,-0.3206,-0.3207,0,0,0,0,0,0,0,-0.2832,-0.2842,-0.293,-0.2933,-0.2941,-0.2973,-0.2984,-0.3013,-0.3073,-0.3032,-0.3038,-0.3053,-0.3137,-0.3155,-0.3162,-0.3205,-0.3203,-0.3206,-0.3208,-0.3209,-0.3226,-0.3224,0,0,0,0,0,0,-0.2818,-0.2837,-0.2927,-0.2934,-0.2894,-0.2974,-0.2987,-0.2999,-0.3073,-0.3085,-0.3052,-0.3056,-0.3149,-0.3158,-0.3166,-0.3159,-0.3206,-0.3209,-0.3211,-0.3227,-0.3225,-0.3224,0,0,0,0,0,0,-0.2815,-0.2825,-0.2922,-0.2889,-0.2904,-0.2975,-0.2989,-0.3001,-0.3022,-0.3088,-0.3101,-0.3061,-0.315,-0.3161,-0.3182,-0.3164,-0.3211,-0.3214,-0.3229,-0.3227,-0.3224,-0.3153,0,0,0,0,0,0,-0.2811,-0.2823,-0.2826,-0.2888,-0.2905,-0.2941,-0.2988,-0.3003,-0.3031,-0.3037,-0.31,-0.3111,-0.3152,-0.3177,-0.3185,-0.3169,-0.3217,-0.3231,-0.3228,-0.3225,-0.3157,-0.3148,-0.3141,0,0,0,0,0,-0.2806,-0.2807,-0.2826,-0.2837,-0.2908,-0.294,-0.295,-0.3004,-0.303,-0.3028,-0.307,-0.3109,-0.3164,-0.3178,-0.3189,-0.3173,-0.3232,-0.3229,-0.3225,-0.3161,-0.315,-0.3141,0,0,0,0,0,0,-0.2762,-0.2817,-0.2839,-0.2858,-0.2889,-0.2953,-0.2962,-0.2996,-0.3029,-0.3037,-0.3097,-0.311,-0.3119,-0.3149,-0.3164,-0.3165,-0.3201,-0.3199,-0.3148,-0.3138,-0.313,-0.3142,-0.3219,0,0,0,0,0,-0.2751,-0.2762,-0.2816,-0.2828,-0.2842,-0.2898,-0.2919,-0.2952,-0.2992,-0.3009,-0.3051,-0.3088,-0.3111,-0.3128,-0.3154,-0.3159,-0.3164,-0.3151,-0.3143,-0.3136,-0.3149,-0.3133,-0.3125,-0.3212,-0.3212,-0.3212,0,0,-0.2738,-0.2769,-0.2777,-0.2818,-0.2849,-0.2871,-0.2912,-0.2935,-0.2954,-0.3013,-0.304,-0.3062,-0.3105,-0.3111,-0.3117,-0.3137,-0.3103,-0.3131,-0.3125,-0.3143,-0.3129,-0.3121,-0.3113,-0.321,-0.321,-0.321,0,0,-0.2719,-0.274,-0.2747,-0.277,-0.2811,-0.2842,-0.2844,-0.2896,-0.2916,-0.2938,-0.298,-0.2988,-0.3033,-0.3055,-0.3074,-0.3032,-0.3059,-0.3035,-0.301,-0.2993,-0.2986,-0.298,-0.2934,-0.2924,-0.3033,-0.3033,-0.3033,0,-0.2703,-0.2724,-0.2751,-0.2767,-0.2789,-0.2826,-0.2841,-0.2862,-0.2913,-0.2928,-0.2934,-0.2982,-0.3007,-0.3024,-0.3008,-0.3016,-0.3005,-0.3047,-0.2983,-0.2978,-0.2973,-0.2927,-0.2918,-0.3029,-0.3029,-0.303,-0.303,0,-0.2697,-0.2714,-0.2716,-0.275,-0.2769,-0.2781,-0.2818,-0.2833,-0.2855,-0.2882,-0.2892,-0.2912,-0.2949,-0.2938,-0.2967,-0.2947,-0.2946,-0.2972,-0.3011,-0.296,-0.2914,-0.2906,-0.3023,-0.3025,-0.3026,-0.3027,0,0,-0.2658,-0.2705,-0.2706,-0.2726,-0.2762,-0.2781,-0.2797,-0.2829,-0.2851,-0.2857,-0.2877,-0.2882,-0.2893,-0.2913,-0.293,-0.2909,-0.2842,-0.2926,-0.2927,-0.2884,-0.2781,-0.2684,-0.2666,-0.2861,-0.286,-0.286,-0.2746,0,-0.2647,-0.2673,-0.27,-0.2723,-0.2738,-0.2777,-0.2796,-0.2825,-0.2844,-0.2865,-0.2864,-0.2883,-0.2883,-0.2894,-0.287,-0.2872,-0.2825,-0.2869,-0.2834,-0.2833,-0.2757,-0.2655,-0.2507,-0.2386,-0.2738,-0.2737,-0.2736,0,-0.2626,-0.2653,-0.2673,-0.2724,-0.2735,-0.2752,-0.2796,-0.282,-0.2851,-0.2866,-0.2873,-0.2886,-0.2869,-0.2869,-0.2814,-0.2846,-0.2804,-0.2781,-0.2777,-0.2717,-0.2721,-0.2501,-0.2358,-0.2723,-0.2724,-0.2725,-0.2726,0,-0.2581,-0.2629,-0.2646,-0.2662,-0.2723,-0.2741,-0.2773,-0.2813,-0.2834,-0.2865,-0.2877,-0.287,-0.2863,-0.2822,-0.277,-0.2798,-0.269,-0.2727,-0.2585,-0.2577,-0.246,-0.2443,-0.2658,-0.2659,-0.2659,-0.2659,-0.266,0,-0.255,-0.2561,-0.2628,-0.2638,-0.2661,-0.2718,-0.274,-0.2778,-0.2822,-0.2826,-0.2871,-0.2859,-0.2853,-0.2799,-0.2753,-0.2623,-0.2668,-0.2554,-0.2535,-0.2424,-0.2406,-0.2729,-0.2739,-0.2655,-0.2656,-0.2657,-0.2657,0,-0.2475,-0.2526,-0.2545,-0.2614,-0.2633,-0.2646,-0.2709,-0.2723,-0.2788,-0.2793,-0.2802,-0.2837,-0.2764,-0.2721,-0.2642,-0.2583,-0.2488,-0.2427,-0.2277,-0.2243,-0.239,-0.2398,-0.2261,-0.2257,-0.2253,-0.225,-0.2247,0,-0.2432,-0.2436,-0.2501,-0.2509,-0.2533,-0.257,-0.2586,-0.2676,-0.2691,-0.2756,-0.2741,-0.2715,-0.2645,-0.2496,-0.2384,-0.2244,-0.2346,-0.2045,-0.207,-0.235,-0.2347,-0.236,-0.2372,-0.1869,-0.1863,-0.1859,-0.1855,0,-0.2335,-0.236,-0.2378,-0.2401,-0.2421,-0.2445,-0.2481,-0.2494,-0.2583,-0.2598,-0.258,-0.2539,-0.2413,-0.2209,-0.2057,-0.1968,-0.2062,-0.1947,-0.226,-0.2001,-0.1973,-0.1973,-0.1999,-0.1815,-0.1819,-0.1822,-0.1824,-0.1825,-0.2241,-0.223,-0.2257,-0.226,-0.2289,-0.2288,-0.225,-0.2303,-0.2304,-0.2275,-0.2346,-0.2223,-0.2174,-0.1853,-0.1718,-0.1617,-0.176,-0.1706,-0.1723,-0.1744,-0.1728,-0.1696,-0.148,-0.1482,-0.1483,-0.1485,-0.1486,0,-0.2106,-0.2109,-0.2111,-0.211,-0.2073,-0.2141,-0.2143,-0.2074,-0.201,-0.202,-0.1968,-0.1736,-0.16,-0.1548,-0.1329,-0.1271,-0.1284,-0.1225,-0.1269,-0.1309,-0.1345,-0.1312,-0.0951,-0.0949,-0.0947,-0.0946,0,0,-0.2036,-0.1987,-0.199,-0.1883,-0.1878,-0.1774,-0.1737,-0.1665,-0.1634,-0.151,-0.1447,-0.1527,-0.1532,-0.126,-0.1177,-0.1037,-0.1165,-0.098,-0.1413,-0.1507,-0.1541,-0.1624,-0.1617,0,0,0,0,0]},{"header":{"parameterUnit":"m.s-1","parameterCategory":2,"la1":30.2991,"la2":30.254,"lo1":-89.0895,"lo2":-89.0444,"dy":0.0017,"dx":0.0017,"nx":28,"ny":28,"refTime":"2024-06-07T09:00:00:Z","depth":"2","parameterNumber":3,"parameterNumberName":"V-component_of_CURRENTS"},"data":[0,0,0,0,0,0,0,0,0,0,0,0,0,0,0,0,0,0,0,0,0,0,0,0,0,0,0,0,0,0,0,0,0,0,0,0,0,0,0,0,0,0,0,0,0,0,0,0,0,0,0,0,0,0,0,0,0,0,-0.0597,-0.0596,0,-0.0435,-0.0433,-0.043,-0.0291,-0.029,-0.0289,-0.0288,-0.0022,-0.0016,-0.001,0,0,0,0,0,0,0,0,0,0,0,0,0,-0.0616,-0.0617,-0.0597,-0.0596,-0.0594,-0.0435,-0.0433,-0.043,-0.0292,-0.029,-0.0289,-0.0288,-0.0024,-0.0017,-0.0009,0,0,0,0,0,0,0,0,0,0,0,0,0,-0.0542,-0.0617,-0.0598,-0.0509,-0.05,-0.0436,-0.0432,-0.0429,-0.0292,-0.029,-0.0289,-0.0287,-0.0026,-0.0017,-0.0008,0.0014,0,0,0.0019,0.0023,0,0,0,0,0,0,0,0,-0.0547,-0.0541,-0.0524,-0.0515,-0.0505,-0.0386,-0.0341,-0.0277,-0.0292,-0.0366,-0.0288,-0.0286,-0.0138,-0.012,-0.0088,0.0026,0.0038,0.002,0.0026,0.003,0.0032,0,0,0,0,0,0,0,-0.0552,-0.0547,-0.0528,-0.0523,-0.0511,-0.0419,-0.0408,-0.0328,-0.0258,-0.036,-0.035,-0.034,-0.0131,-0.0097,-0.008,0.0042,0.002,0.0028,0.0034,0.0037,0.0229,0.0229,0,0,0,0,0,0,-0.0593,-0.0553,-0.0533,-0.0524,-0.0527,-0.0422,-0.0408,-0.0422,-0.0261,-0.0237,-0.0342,-0.0334,-0.0113,-0.0091,-0.007,-0.0017,0.0029,0.0038,0.0043,0.0229,0.0229,0.0228,0,0,0,0,0,0,-0.0595,-0.0594,-0.054,-0.0536,-0.0523,-0.0425,-0.044,-0.042,-0.0386,-0.0249,-0.0222,-0.0329,-0.0111,-0.0083,-0.0005,-0.0006,0.0042,0.005,0.023,0.0229,0.0229,0.0078,0,0,0,0,0,0,-0.0596,-0.0596,-0.0608,-0.054,-0.0526,-0.0513,-0.0441,-0.0418,-0.0384,-0.0373,-0.023,-0.0203,-0.0108,-0.002,0.0004,0.0007,0.0057,0.023,0.0229,0.0229,0.0084,0.0073,0.0063,0,0,0,0,0,-0.0598,-0.062,-0.0611,-0.0607,-0.0551,-0.0514,-0.0498,-0.0416,-0.0386,-0.0378,-0.0284,-0.0207,-0.0006,-0.0013,0.0014,0.0021,0.023,0.023,0.0229,0.0088,0.0075,0.0064,0,0,0,0,0,0,-0.0622,-0.0607,-0.0595,-0.0609,-0.0575,-0.0493,-0.0472,-0.0435,-0.0356,-0.0339,-0.0215,-0.0182,-0.0114,-0.0032,-0.0043,0.0074,0.0126,0.0131,0.001,-0.0001,-0.0012,-0.0029,0.0065,0,0,0,0,0,-0.0645,-0.0662,-0.0628,-0.0637,-0.0628,-0.056,-0.0533,-0.049,-0.0418,-0.0381,-0.0291,-0.0186,-0.0097,-0.0041,0.0047,0.0107,0.0189,0.0131,0.012,0.0111,0.0116,0.0231,0.0231,0.0226,0.0226,0.0226,0,0,-0.0654,-0.0649,-0.0656,-0.0644,-0.0607,-0.0596,-0.0537,-0.0511,-0.0492,-0.0365,-0.0308,-0.0224,-0.0092,-0.0023,0.0017,0.0048,0.0149,0.011,0.0101,0.0112,0.023,0.0231,0.0231,0.0225,0.0226,0.0226,0,0,-0.068,-0.0686,-0.0706,-0.0692,-0.0663,-0.0624,-0.0631,-0.0572,-0.0533,-0.0486,-0.0385,-0.0308,-0.0181,-0.0082,-0.0015,-0.0029,0.0083,-0.0004,-0.0056,0.0053,0.0055,0.0057,0.0129,0.0139,0.0,-0.0,-0.0,0,-0.0689,-0.0718,-0.07,-0.0713,-0.0701,-0.065,-0.0657,-0.0616,-0.0538,-0.0507,-0.0485,-0.0301,-0.0203,-0.0093,-0.0099,-0.0051,0.0016,-0.0026,0.0039,0.0043,0.0049,0.0123,0.0136,-0.0008,-0.0007,-0.0006,-0.0005,0,-0.0729,-0.0747,-0.0756,-0.0762,-0.0748,-0.0748,-0.0707,-0.0687,-0.0648,-0.0595,-0.0511,-0.0391,-0.0273,-0.024,-0.017,-0.0086,-0.0051,0.0001,0.0063,0.004,0.0119,0.0135,-0.0018,-0.0015,-0.0013,-0.0011,0,0,-0.076,-0.0781,-0.0784,-0.0797,-0.0779,-0.0773,-0.0756,-0.0716,-0.0693,-0.0628,-0.0579,-0.045,-0.0393,-0.0314,-0.0221,-0.0132,-0.0058,-0.0064,-0.0055,-0.0006,0.0159,0.0167,0.0186,0.0005,0.0008,0.001,0.0188,0,-0.0791,-0.0836,-0.0829,-0.0853,-0.0871,-0.0832,-0.0823,-0.078,-0.0724,-0.0667,-0.0554,-0.0471,-0.0417,-0.0364,-0.0272,-0.0098,-0.0016,-0.0112,0.0188,0.0197,0.0196,0.0205,0.0161,0.0315,0.0204,0.0207,0.0209,0,-0.0831,-0.0858,-0.0898,-0.0913,-0.0916,-0.092,-0.0891,-0.0869,-0.0779,-0.0734,-0.064,-0.0548,-0.0413,-0.0368,-0.0107,-0.0172,-0.0026,0.0097,0.0108,0.0185,0.0236,0.0331,0.035,0.0238,0.0236,0.0234,0.0232,0,-0.0872,-0.0901,-0.0938,-0.0946,-0.0954,-0.0961,-0.0951,-0.089,-0.0866,-0.0764,-0.0726,-0.0567,-0.0465,-0.0277,-0.0051,-0.0066,0.0236,0.0262,0.0402,0.0403,0.0463,0.0464,0.0447,0.0447,0.0447,0.0446,0.0446,0,-0.0917,-0.0944,-0.0967,-0.0993,-0.1033,-0.1013,-0.1019,-0.0988,-0.092,-0.0877,-0.0761,-0.068,-0.0434,-0.0243,-0.0053,0.022,0.0245,0.0399,0.046,0.0404,0.0398,0.0418,0.0412,0.0453,0.0451,0.045,0.0449,0,-0.0961,-0.0974,-0.1022,-0.1049,-0.1061,-0.1088,-0.1085,-0.1077,-0.101,-0.0944,-0.0916,-0.0731,-0.0483,-0.0245,0.0092,0.0232,0.0484,0.0575,0.0466,0.051,0.057,0.0555,0.0745,0.0747,0.0749,0.075,0.0752,0,-0.0989,-0.102,-0.1075,-0.1109,-0.1128,-0.1157,-0.1176,-0.1132,-0.1109,-0.0965,-0.0932,-0.07,-0.0517,-0.0063,0.0227,0.0551,0.0564,0.0689,0.0657,0.0566,0.0607,0.0588,0.0571,0.067,0.0671,0.0671,0.0671,0,-0.1038,-0.1056,-0.1099,-0.1178,-0.1218,-0.125,-0.1263,-0.1258,-0.1176,-0.1097,-0.0932,-0.0773,-0.0363,-0.0014,0.0372,0.0551,0.0623,0.0706,0.0696,0.0582,0.0505,0.0541,0.0525,0.0674,0.0674,0.0674,0.0674,0.0673,-0.1065,-0.1112,-0.1171,-0.124,-0.1288,-0.1325,-0.1333,-0.1302,-0.1247,-0.1092,-0.0939,-0.0664,-0.0346,0.0206,0.0477,0.0709,0.0706,0.077,0.0766,0.0762,0.0703,0.0631,0.0811,0.0811,0.0812,0.0812,0.0813,0,-0.1098,-0.1153,-0.1226,-0.1303,-0.1354,-0.1368,-0.1374,-0.1334,-0.1244,-0.1065,-0.0871,-0.05,-0.0124,0.0201,0.0574,0.0794,0.077,0.0823,0.0754,0.0749,0.0745,0.0682,0.0787,0.0788,0.0789,0.0789,0,0,-0.1118,-0.1195,-0.1239,-0.1335,-0.1383,-0.1413,-0.1404,-0.1311,-0.1175,-0.0969,-0.0761,-0.0489,-0.0101,0.0164,0.0437,0.0628,0.0628,0.0637,0.0632,0.0513,0.0507,0.0688,0.0582,0,0,0,0,0]}],[{"header":{"parameterUnit":"m.s-1","parameterCategory":2,"la1":30.2991,"la2":30.254,"lo1":-89.0895,"lo2":-89.0444,"dy":0.0017,"dx":0.0017,"nx":28,"ny":28,"refTime":"2024-06-07T09:00:00:Z","depth":"4","parameterNumber":2,"parameterNumberName":"U-component_of_CURRENTS"},"data":[0,0,0,0,0,0,0,0,0,0,0,0,0,0,0,0,0,0,0,0,0,0,0,0,0,0,0,0,0,0,0,0,0,0,0,0,0,0,0,0,0,0,0,0,0,0,0,0,0,0,0,0,0,0,0,0,0,0,-0.2022,-0.2024,0,-0.215,-0.2151,-0.2152,-0.2243,-0.2244,-0.2245,-0.2246,-0.2227,-0.2225,-0.2224,0,0,0,0,0,0,0,0,0,0,0,0,0,-0.1883,-0.1885,-0.2022,-0.2024,-0.2026,-0.2149,-0.2151,-0.2152,-0.2243,-0.2244,-0.2245,-0.2246,-0.2227,-0.2225,-0.2224,0,0,0,0,0,0,0,0,0,0,0,0,0,-0.1968,-0.1885,-0.2022,-0.2087,-0.2095,-0.2149,-0.2151,-0.2153,-0.2242,-0.2244,-0.2245,-0.2247,-0.2228,-0.2226,-0.2224,-0.2182,0,0,-0.2217,-0.2216,0,0,0,0,0,0,0,0,-0.1963,-0.1972,-0.2076,-0.2083,-0.2091,-0.2184,-0.2096,-0.2156,-0.2242,-0.2184,-0.2246,-0.2247,-0.2199,-0.22,-0.2219,-0.2181,-0.218,-0.2217,-0.2216,-0.2215,-0.2214,0,0,0,0,0,0,0,-0.1957,-0.1968,-0.207,-0.2078,-0.2087,-0.212,-0.2133,-0.2108,-0.2177,-0.2189,-0.2196,-0.2214,-0.2202,-0.2221,-0.2219,-0.218,-0.2217,-0.2215,-0.2214,-0.2213,-0.2204,-0.2205,0,0,0,0,0,0,-0.1943,-0.1962,-0.2066,-0.2074,-0.2032,-0.2121,-0.2136,-0.2151,-0.2181,-0.2189,-0.2213,-0.2218,-0.2224,-0.2221,-0.2218,-0.2251,-0.2215,-0.2213,-0.2212,-0.2203,-0.2204,-0.2205,0,0,0,0,0,0,-0.194,-0.1951,-0.2061,-0.2023,-0.204,-0.2122,-0.2138,-0.2153,-0.2208,-0.2201,-0.2206,-0.2258,-0.2225,-0.2221,-0.2242,-0.2247,-0.2212,-0.221,-0.2202,-0.2204,-0.2205,-0.2263,0,0,0,0,0,0,-0.1935,-0.1949,-0.1972,-0.2022,-0.2042,-0.2106,-0.2138,-0.2154,-0.2216,-0.2225,-0.224,-0.2239,-0.2226,-0.2245,-0.224,-0.2244,-0.2208,-0.2201,-0.2203,-0.2204,-0.226,-0.2266,-0.2272,0,0,0,0,0,-0.1929,-0.1948,-0.1972,-0.1986,-0.2065,-0.2107,-0.212,-0.2181,-0.2217,-0.2238,-0.2268,-0.224,-0.2253,-0.2245,-0.2238,-0.2241,-0.22,-0.2202,-0.2204,-0.2257,-0.2265,-0.2272,0,0,0,0,0,0,-0.1904,-0.196,-0.1988,-0.2025,-0.207,-0.2124,-0.2157,-0.2197,-0.2241,-0.2257,-0.2256,-0.2256,-0.2276,-0.2252,-0.2244,-0.2246,-0.2219,-0.222,-0.2262,-0.2269,-0.2275,-0.2265,-0.2207,0,0,0,0,0,-0.1906,-0.1936,-0.1989,-0.2022,-0.2044,-0.2106,-0.2141,-0.218,-0.2219,-0.2245,-0.2262,-0.2272,-0.2272,-0.227,-0.2267,-0.2262,-0.2224,-0.2259,-0.2266,-0.2271,-0.226,-0.2231,-0.2233,-0.2213,-0.2213,-0.2213,0,0,-0.1907,-0.1942,-0.1963,-0.2019,-0.2061,-0.2096,-0.2131,-0.2185,-0.2221,-0.2227,-0.2286,-0.2295,-0.228,-0.2291,-0.2294,-0.2275,-0.2257,-0.2274,-0.2278,-0.2264,-0.2233,-0.2235,-0.2237,-0.2215,-0.2214,-0.2214,0,0,-0.1913,-0.1953,-0.1979,-0.2015,-0.2079,-0.211,-0.2131,-0.2199,-0.2239,-0.2284,-0.2304,-0.2328,-0.233,-0.2328,-0.2321,-0.2352,-0.2297,-0.235,-0.2362,-0.2335,-0.2336,-0.2336,-0.2288,-0.2284,-0.2345,-0.2345,-0.2345,0,-0.1917,-0.1955,-0.1994,-0.2026,-0.2061,-0.2117,-0.2151,-0.219,-0.2262,-0.2287,-0.2307,-0.2347,-0.2342,-0.2346,-0.2368,-0.2363,-0.2333,-0.2337,-0.2342,-0.2341,-0.2341,-0.2291,-0.2285,-0.2348,-0.2348,-0.2347,-0.2347,0,-0.1934,-0.1978,-0.1994,-0.2051,-0.2088,-0.2125,-0.2176,-0.2225,-0.2277,-0.2312,-0.2355,-0.2368,-0.2386,-0.2391,-0.2389,-0.2386,-0.2362,-0.236,-0.2321,-0.2346,-0.2292,-0.2285,-0.2353,-0.2351,-0.235,-0.235,0,0,-0.1907,-0.1992,-0.2002,-0.2038,-0.2106,-0.2137,-0.2188,-0.2242,-0.2282,-0.2337,-0.2374,-0.2397,-0.2417,-0.241,-0.2415,-0.2395,-0.2374,-0.2379,-0.2376,-0.2326,-0.2297,-0.2167,-0.2147,-0.2375,-0.2375,-0.2374,-0.226,0,-0.1914,-0.1974,-0.2016,-0.2077,-0.211,-0.217,-0.221,-0.2265,-0.2311,-0.2357,-0.2373,-0.2405,-0.2417,-0.2434,-0.242,-0.2387,-0.2358,-0.2403,-0.2284,-0.228,-0.2157,-0.2135,-0.2372,-0.2255,-0.2253,-0.2252,-0.2251,0,-0.1909,-0.1955,-0.2017,-0.2096,-0.2117,-0.2162,-0.2236,-0.2282,-0.2338,-0.2372,-0.2404,-0.242,-0.2416,-0.2424,-0.2361,-0.239,-0.2348,-0.2315,-0.231,-0.2159,-0.2136,-0.2225,-0.2237,-0.2238,-0.2239,-0.224,-0.2241,0,-0.186,-0.1951,-0.2002,-0.2032,-0.2127,-0.2171,-0.2224,-0.2291,-0.2323,-0.2382,-0.24,-0.2408,-0.2402,-0.2365,-0.2312,-0.2336,-0.2221,-0.2241,-0.2078,-0.2068,-0.2196,-0.2197,-0.2184,-0.2184,-0.2184,-0.2185,-0.2185,0,-0.1829,-0.1876,-0.1993,-0.2022,-0.208,-0.2158,-0.2216,-0.2272,-0.2331,-0.2337,-0.2405,-0.2385,-0.2388,-0.2332,-0.2292,-0.2141,-0.2199,-0.2056,-0.2023,-0.2224,-0.2229,-0.219,-0.2193,-0.218,-0.2181,-0.2182,-0.2183,0,-0.1755,-0.1839,-0.1905,-0.2022,-0.2059,-0.2103,-0.2203,-0.2227,-0.2308,-0.2313,-0.2327,-0.2349,-0.2264,-0.2241,-0.2152,-0.2082,-0.198,-0.1919,-0.211,-0.2095,-0.1852,-0.1859,-0.171,-0.1705,-0.17,-0.1696,-0.1693,0,-0.1717,-0.1747,-0.1884,-0.1918,-0.1976,-0.2055,-0.2089,-0.2195,-0.2204,-0.2257,-0.2225,-0.2194,-0.2182,-0.1935,-0.195,-0.1835,-0.1826,-0.1764,-0.1828,-0.1816,-0.18,-0.1815,-0.1828,-0.1685,-0.1684,-0.1682,-0.1681,0,-0.163,-0.17,-0.1751,-0.1823,-0.1881,-0.1927,-0.1985,-0.1976,-0.2061,-0.2156,-0.205,-0.199,-0.1887,-0.181,-0.1728,-0.1664,-0.1801,-0.1713,-0.1724,-0.1784,-0.1784,-0.1776,-0.1794,-0.1664,-0.1667,-0.1668,-0.1669,0,-0.1559,-0.1575,-0.1651,-0.1692,-0.1762,-0.1757,-0.1815,-0.1801,-0.1826,-0.1892,-0.1841,-0.1819,-0.1845,-0.1718,-0.1645,-0.1564,-0.1551,-0.1513,-0.1534,-0.1553,-0.1557,-0.1537,-0.1284,0,0,0,0,0,-0.1471,-0.1469,-0.1503,-0.1539,-0.1599,-0.1632,-0.1713,-0.177,-0.1852,-0.1724,-0.1779,-0.1679,-0.1566,-0.1565,-0.1442,-0.158,-0.1564,-0.1434,-0.1535,-0.1571,-0.1591,-0.1613,0,0,0,0,0,0,-0.1414,-0.1446,-0.1452,-0.139,-0.1379,-0.1419,-0.1464,-0.1528,-0.1472,-0.1562,-0.1501,-0.1576,-0.1485,-0.1587,-0.1401,-0.14,-0.143,-0.1441,-0.1437,-0.156,-0.1578,-0.1594,-0.1623,0,0,0,0,0]},{"header":{"parameterUnit":"m.s-1","parameterCategory":2,"la1":30.2991,"la2":30.254,"lo1":-89.0895,"lo2":-89.0444,"dy":0.0017,"dx":0.0017,"nx":28,"ny":28,"refTime":"2024-06-07T09:00:00:Z","depth":"4","parameterNumber":3,"parameterNumberName":"V-component_of_CURRENTS"},"data":[0,0,0,0,0,0,0,0,0,0,0,0,0,0,0,0,0,0,0,0,0,0,0,0,0,0,0,0,0,0,0,0,0,0,0,0,0,0,0,0,0,0,0,0,0,0,0,0,0,0,0,0,0,0,0,0,0,0,-0.0429,-0.0429,0,-0.0319,-0.0318,-0.0316,-0.0226,-0.0226,-0.0225,-0.0225,-0.0079,-0.0076,-0.0072,0,0,0,0,0,0,0,0,0,0,0,0,0,-0.0431,-0.0432,-0.0429,-0.0428,-0.0427,-0.0319,-0.0317,-0.0316,-0.0226,-0.0226,-0.0225,-0.0224,-0.008,-0.0076,-0.0072,0,0,0,0,0,0,0,0,0,0,0,0,0,-0.0383,-0.0432,-0.043,-0.0373,-0.0367,-0.032,-0.0317,-0.0315,-0.0226,-0.0226,-0.0225,-0.0224,-0.0081,-0.0077,-0.0072,-0.0057,0,0,-0.0056,-0.0054,0,0,0,0,0,0,0,0,-0.0386,-0.0382,-0.0382,-0.0377,-0.037,-0.0289,-0.0265,-0.0228,-0.0227,-0.0275,-0.0225,-0.0224,-0.0149,-0.0139,-0.0114,-0.005,-0.0044,-0.0056,-0.0053,-0.005,-0.0049,0,0,0,0,0,0,0,-0.0389,-0.0386,-0.0381,-0.0381,-0.0374,-0.0308,-0.0301,-0.0256,-0.0214,-0.0271,-0.0265,-0.026,-0.0145,-0.0119,-0.011,-0.0042,-0.0056,-0.0051,-0.0048,-0.0046,0.0096,0.0097,0,0,0,0,0,0,-0.042,-0.039,-0.0385,-0.0379,-0.0381,-0.031,-0.0301,-0.0313,-0.0215,-0.0201,-0.0261,-0.0256,-0.0128,-0.0116,-0.0105,-0.0062,-0.005,-0.0046,-0.0043,0.0095,0.0096,0.0097,0,0,0,0,0,0,-0.042,-0.0421,-0.039,-0.0383,-0.0376,-0.0312,-0.0324,-0.0311,-0.0292,-0.0209,-0.0193,-0.0257,-0.0127,-0.0112,-0.0057,-0.0057,-0.0043,-0.0039,0.0094,0.0095,0.0096,0.001,0,0,0,0,0,0,-0.0421,-0.0422,-0.0435,-0.0387,-0.0377,-0.0372,-0.0325,-0.031,-0.0292,-0.0284,-0.02,-0.0185,-0.0125,-0.0065,-0.0052,-0.0049,-0.0035,0.0093,0.0095,0.0096,0.0012,0.0009,0.0005,0,0,0,0,0,-0.0422,-0.044,-0.0437,-0.0436,-0.04,-0.0373,-0.0362,-0.0309,-0.0293,-0.0288,-0.0221,-0.0188,-0.0046,-0.0061,-0.0046,-0.0042,0.0093,0.0094,0.0096,0.0014,0.0009,0.0005,0,0,0,0,0,0,-0.0437,-0.0431,-0.0427,-0.0441,-0.0419,-0.036,-0.0349,-0.0325,-0.0269,-0.0261,-0.0183,-0.0163,-0.0113,-0.0065,-0.0083,0.0007,0.003,0.0035,-0.0037,-0.0041,-0.0045,-0.0069,-0.0031,0,0,0,0,0,-0.0455,-0.0472,-0.045,-0.0461,-0.0456,-0.0411,-0.0393,-0.0366,-0.0314,-0.029,-0.0234,-0.0163,-0.0093,-0.006,0.0002,0.0041,0.0082,0.0058,0.0054,0.0051,0.0044,0.0116,0.0118,0.0102,0.0102,0.0102,0,0,-0.0464,-0.0463,-0.0471,-0.0467,-0.0443,-0.0432,-0.0397,-0.0382,-0.0365,-0.0284,-0.0243,-0.018,-0.0086,-0.003,-0.0003,0.0009,0.0074,0.0053,0.0049,0.0044,0.0118,0.012,0.0121,0.0103,0.0103,0.0103,0,0,-0.048,-0.0494,-0.0508,-0.05,-0.0484,-0.0455,-0.0462,-0.0422,-0.0396,-0.0359,-0.0283,-0.0222,-0.0138,-0.0059,-0.0008,0.0004,0.005,0.0021,-0.0016,0.0054,0.0055,0.0057,0.0088,0.0093,0.0021,0.0021,0.0021,0,-0.0487,-0.0508,-0.0504,-0.051,-0.0504,-0.0475,-0.0476,-0.0446,-0.0391,-0.0371,-0.0358,-0.0218,-0.0145,-0.0054,-0.0042,-0.0006,0.0026,-0.0013,0.0046,0.0049,0.0052,0.0085,0.0091,0.0017,0.0017,0.0018,0.0018,0,-0.0508,-0.0524,-0.0531,-0.0535,-0.0527,-0.0527,-0.0498,-0.0487,-0.0464,-0.0427,-0.0363,-0.0267,-0.0182,-0.0146,-0.0089,-0.0023,-0.0013,0.0027,0.0047,0.0048,0.0082,0.0091,0.0011,0.0013,0.0014,0.0015,0,0,-0.0525,-0.0543,-0.0546,-0.0558,-0.0545,-0.0543,-0.0526,-0.0499,-0.0491,-0.0441,-0.0413,-0.0294,-0.0259,-0.0199,-0.0121,-0.0059,-0.0011,-0.0018,-0.0012,-0.0006,0.0111,0.0095,0.0103,0.0035,0.0036,0.0037,0.0117,0,-0.0539,-0.0568,-0.0564,-0.0582,-0.0594,-0.0573,-0.0565,-0.0539,-0.0506,-0.0476,-0.0387,-0.0329,-0.0272,-0.0237,-0.0167,-0.0043,0.0011,-0.0039,0.0126,0.0131,0.0101,0.0113,0.0043,0.0123,0.0125,0.0127,0.0128,0,-0.0557,-0.0578,-0.0605,-0.0624,-0.0628,-0.0634,-0.0627,-0.0611,-0.0558,-0.0533,-0.047,-0.0405,-0.0303,-0.0261,-0.0081,-0.012,-0.0018,0.0068,0.0075,0.0096,0.0132,0.0133,0.0144,0.0143,0.0142,0.0141,0.014,0,-0.0582,-0.0605,-0.0634,-0.064,-0.0653,-0.0666,-0.0666,-0.0634,-0.0628,-0.0568,-0.0556,-0.044,-0.0376,-0.0241,-0.0077,-0.0076,0.011,0.0143,0.022,0.0218,0.0245,0.0243,0.0266,0.0266,0.0266,0.0266,0.0266,0,-0.06,-0.0626,-0.0658,-0.0679,-0.0723,-0.0711,-0.0737,-0.0722,-0.0692,-0.0679,-0.0592,-0.0547,-0.0366,-0.0242,-0.0098,0.0075,0.0097,0.0208,0.0245,0.0204,0.0197,0.0249,0.0246,0.0269,0.0268,0.0268,0.0267,0,-0.0625,-0.0641,-0.0687,-0.0723,-0.0742,-0.0776,-0.0804,-0.0813,-0.0779,-0.0757,-0.0743,-0.0618,-0.0457,-0.0285,-0.0052,0.0048,0.0218,0.0278,0.019,0.0221,0.0278,0.0269,0.0358,0.0359,0.0359,0.0359,0.0359,0,-0.0638,-0.0664,-0.0736,-0.0777,-0.0802,-0.0847,-0.0879,-0.0865,-0.0862,-0.079,-0.0776,-0.0635,-0.0533,-0.0232,-0.0051,0.0194,0.0242,0.0306,0.0317,0.0263,0.0291,0.0282,0.0274,0.036,0.036,0.036,0.036,0,-0.0665,-0.0697,-0.0739,-0.0831,-0.0885,-0.0931,-0.0965,-0.0968,-0.0929,-0.0905,-0.078,-0.0627,-0.0447,-0.0224,-0.004,0.0144,0.0248,0.0309,0.0311,0.0321,0.0266,0.0291,0.0283,0.036,0.036,0.036,0.036,0,-0.0687,-0.0731,-0.0797,-0.0869,-0.0943,-0.0987,-0.1,-0.0973,-0.0958,-0.0865,-0.0821,-0.0622,-0.0502,-0.0249,-0.0074,0.0091,0.0141,0.0193,0.0201,0.0202,0.0135,0.0041,0.0096,0,0,0,0,0,-0.0701,-0.0753,-0.0828,-0.0907,-0.0979,-0.1015,-0.1043,-0.1036,-0.0998,-0.0912,-0.086,-0.0684,-0.0409,-0.0287,-0.0121,-0.0084,0.0148,0.0112,0.0207,0.0364,0.0364,0.031,0,0,0,0,0,0,-0.0712,-0.0789,-0.0828,-0.0917,-0.097,-0.1038,-0.1052,-0.1028,-0.0962,-0.0901,-0.0747,-0.0658,-0.0388,-0.0501,-0.0121,-0.0072,0.0007,0.0244,0.0247,0.0365,0.0364,0.0363,0.0308,0,0,0,0,0]}]]